FLOCK 2B-9

Last updated on Sun Oct 16 2016 17:19:11 GMT+0000 (Coordinated Universal Time)

1 40963U 98067HL 16290.22871241 .08214560 12305-4 80059-3 0 9993 2 40963 51.6156 120.1405 0015098 267.3200 93.7862 16.37055307 59055

Satellite not in orbit

FLOCK 2B-9